Flag for France Weather past 2 weeks in Dijon, France

Now
63 °F

Clear.


Feels Like: 63 °F
Forecast: 55 / 87 °F
Wind: 5 mph from Northwest

Location: Dijon Airport

Current Time: Aug 1, 2015 at 3:41:12 AM

Latest Report: Aug 1, 2015 at 3:00 AM


Visibility: 10 mi

Pressure: 29.89 "Hg

Humidity: 56%

Dew point: 46 °F

Location of DijonLocation

Historic Weather in Dijon — Graph

°F

Dijon temperature yesterday

Maximum temperature yesterday: 75 °F (at 4:00 PM)
Minimum temperature yesterday: 52 °F (at 6:00 AM)
Average temperature yesterday: 65 °F

Past Weeks' High & Low Weather Summary

 TemperatureHumidityPressure
High99 °F (Jul 17, 6:00 PM)94% (Jul 27, 12:30 AM)30.15 "Hg (Jul 27, 12:30 AM)
Low45 °F (Jul 30, 6:30 AM)23% (Jul 17, 4:30 PM)29.71 "Hg (Jul 24, 5:30 PM)
Average72 °F54%29.96 "Hg
* Reported Jul 17 2:00 AM — Aug 1 2:30 AM, Dijon, Weather by CustomWeather, © 2015

Note: Actual official high and low records may vary slightly from our data, if they occured in-between our weather recording intervals... More about our weather records

Advertising

Dijon weather history for previous 24 hours

 ConditionsComfort  
Time TempWeatherWind HumidityBarometerVisibility
2:30 AM
Sat, Aug 1
63 °FClear.5 mph56%29.89 "Hg10 mi
2:00 AM63 °FClear.5 mph56%29.89 "Hg10 mi
1:30 AM63 °FClear.5 mph56%29.89 "Hg10 mi
1:00 AM63 °FClear.5 mph52%29.89 "Hg10 mi
12:30 AM63 °FClear.5 mph56%29.89 "Hg10 mi
11:30 PM
Fri, Jul 31
63 °FClear.No wind49%29.89 "Hg10 mi
11:00 PM63 °FClear.2 mph52%29.92 "Hg10 mi
10:30 PM66 °FClear.1 mph43%29.89 "Hg10 mi
10:00 PM68 °FSunny.2 mph38%29.89 "Hg10 mi
9:30 PM70 °FSunny.3 mph38%29.89 "Hg10 mi
9:00 PM72 °FSunny.1 mph33%29.89 "Hg10 mi
8:30 PM73 °FSunny.5 mph31%29.89 "Hg10 mi
8:00 PM73 °FSunny.6 mph31%29.89 "Hg10 mi
7:30 PM75 °FPartly sunny.6 mph29%29.89 "HgN/A
7:00 PM75 °FSunny.8 mph29%29.89 "Hg10 mi
6:30 PM75 °FPassing clouds.7 mph29%29.89 "HgN/A
6:00 PM75 °FSunny.9 mph29%29.89 "Hg10 mi
5:30 PM75 °FPassing clouds.8 mph29%29.89 "HgN/A
5:00 PM75 °FPassing clouds.10 mph29%29.92 "HgN/A
4:30 PM75 °FPassing clouds.9 mph31%29.92 "HgN/A
4:00 PM75 °FPassing clouds.8 mph29%29.92 "HgN/A
3:30 PM73 °FPassing clouds.12 mph31%29.95 "HgN/A
3:00 PM73 °FPassing clouds.12 mph31%29.95 "HgN/A
2:30 PM73 °FPassing clouds.12 mph31%29.95 "HgN/A
2:00 PM73 °FPassing clouds.13 mph31%29.98 "HgN/A
1:30 PM72 °FPassing clouds.14 mph33%29.98 "HgN/A
1:00 PM72 °FPassing clouds.14 mph31%29.98 "HgN/A
12:30 PM72 °FPassing clouds.12 mph33%29.98 "HgN/A
12:00 PM70 °FPassing clouds.12 mph35%30.01 "HgN/A
11:30 AM68 °FPassing clouds.13 mph40%30.01 "HgN/A
11:00 AM66 °FPassing clouds.13 mph43%30.01 "HgN/A
10:30 AM66 °FSunny.12 mph43%30.01 "Hg10 mi
10:00 AM63 °FPassing clouds.12 mph52%30.04 "HgN/A
9:30 AM61 °FSunny.13 mph55%30.04 "Hg10 mi
9:00 AM59 °FSunny.12 mph55%30.04 "Hg10 mi
8:30 AM57 °FSunny.12 mph63%30.04 "Hg10 mi
8:00 AM55 °FSunny.10 mph63%30.04 "Hg10 mi
7:30 AM55 °FSunny.10 mph63%30.04 "Hg10 mi
7:00 AM54 °FClear.10 mph63%30.04 "Hg10 mi
6:30 AM52 °FClear.9 mph67%30.04 "Hg10 mi
6:00 AM52 °FClear.9 mph67%30.04 "Hg10 mi
5:30 AM54 °FClear.9 mph63%30.07 "Hg10 mi
5:00 AM54 °FClear.10 mph63%30.07 "Hg10 mi
4:30 AM54 °FClear.9 mph67%30.07 "Hg10 mi
4:00 AM55 °FClear.9 mph63%30.07 "Hg10 mi
3:30 AM55 °FClear.9 mph63%30.07 "Hg10 mi
3:00 AM55 °FClear.9 mph63%30.07 "Hg10 mi
Weather by CustomWeather, © 2015

See weather overviewHow to use our weather pages